Wind_Speed
9 10 11 11 12 12 12 13 14 15 16 17 18 18 19 20 20 20 20 21 21 22 23 23 23 23 24 25 25 26 26 27 28 28 28 28 28 30
11 12 12 12 13 13 14 14 16 17 17 18 19 20 20 20 21 21 21 21 22 22 23 24 24 24 24 25 26 26 26 27 28 29 30 30 30 31
12 12 13 13 14 14 15 16 16 17 17 18 19 19 20 21 21 21 22 23 23 24 24 24 24 25 25 26 27 27 27 28 29 30 30 30 32 33
13 13 14 14 14 15 16 16 17 18 18 18 18 19 20 20 21 21 22 23 24 24 24 24 25 26 26 27 28 28 28 29 30 30 31 31 32 33
13 14 14 15 16 16 17 17 18 18 19 19 20 20 20 21 22 22 23 23 23 23 24 25 26 26 27 28 28 29 30 30 31 31 31 32 33 33
14 14 15 15 16 17 17 18 18 19 20 20 21 21 21 22 23 23 23 24 25 25 25 26 26 26 27 28 28 29 29 30 31 32 32 33 33 33
15 15 16 16 17 17 18 18 19 20 21 21 21 22 22 23 23 24 24 25 25 26 26 27 27 27 28 28 28 29 30 30 31 31 32 32 32 33
17 17 18 18 18 18 18 19 20 21 22 22 23 23 24 24 24 25 25 26 26 27 27 28 28 29 29 29 29 30 30 31 31 31 32 32 33 33
18 19 19 19 19 19 20 21 22 22 23 23 24 25 25 25 26 26 27 27 27 28 28 29 30 30 31 31 30 30 31 31 32 32 32 32 32 33
19 19 20 20 21 21 22 23 23 23 24 25 26 26 26 26 27 27 28 28 29 29 30 30 31 31 32 31 31 31 32 32 32 32 33 33 33 33
20 21 21 21 22 22 23 24 24 25 25 26 26 27 27 27 27 28 28 29 29 30 31 31 31 31 31 31 31 31 32 32 32 33 33 33 33 33
22 22 22 22 23 23 24 24 25 26 27 27 27 27 28 28 28 29 29 29 30 30 30 31 31 30 30 30 30 31 31 31 31 32 32 32 32 32
24 24 24 24 24 24 25 25 26 27 28 28 28 28 28 28 29 29 30 30 30 30 30 30 30 30 30 30 30 30 30 31 31 31 31 31 31 31
24 25 25 25 26 26 26 26 26 27 28 28 28 28 28 28 29 29 29 29 29 29 29 29 29 29 30 30 31 31 31 30 30 30 31 30 30 29
26 26 26 27 27 27 27 27 28 28 28 28 28 28 28 28 29 29 29 29 29 30 30 30 30 31 31 30 30 30 30 30 30 30 29 29 29 28
27 26 27 27 27 28 28 28 29 29 28 28 29 29 29 29 29 29 30 30 30 31 31 31 30 30 30 30 30 29 29 29 29 29 29 29 29 28
27 27 27 28 28 28 29 29 29 29 29 29 29 29 29 29 30 30 30 30 30 31 31 31 30 29 29 29 29 29 29 29 29 28 28 28 28 28
28 28 28 28 29 29 29 30 30 30 30 30 30 30 29 29 29 30 30 30 30 29 29 30 30 30 30 29 29 29 29 29 28 28 28 27 27 28
29 29 29 29 30 30 30 31 31 30 30 30 30 29 29 29 29 29 29 29 29 29 29 29 29 29 29 29 29 29 28 28 29 28 28 28 27 27
30 30 30 30 30 31 31 31 31 30 30 30 30 29 29 28 28 28 29 29 28 29 29 29 29 28 28 27 27 28 28 29 29 29 28 28 28 27
30 30 30 30 30 31 31 30 30 31 31 30 30 29 28 28 28 28 29 29 29 29 28 28 28 28 28 28 28 28 29 29 29 29 28 28 27 27
31 31 31 31 31 31 31 30 30 30 30 30 29 29 28 29 29 29 29 29 29 29 29 29 29 29 29 29 29 29 29 29 28 28 29 28 28 27
30 30 31 31 31 31 30 30 30 30 29 30 30 29 29 29 29 30 30 30 30 30 30 30 30 30 30 30 30 29 29 29 28 28 28 28 28 27
Wind_Direction
292 292 294 297 297 298 298 297 296 297 296 294 294 294 293 292 291 289 290 291 287 287 285 284 282 280 279 279 279 279 278 279 279 278 276 277 277 276
291 292 293 295 296 296 297 298 297 296 296 294 293 294 295 294 290 287 289 289 287 287 287 285 283 282 282 282 279 278 278 279 278 278 277 277 277 276
291 291 293 295 297 297 298 299 299 299 299 300 299 297 297 295 293 291 291 291 290 287 287 285 285 285 284 283 281 279 279 281 281 280 280 279 278 278
294 293 293 296 299 300 301 300 299 299 300 301 301 300 300 299 298 295 294 293 292 291 288 287 287 287 286 284 282 282 281 282 282 281 281 281 280 279
301 297 295 296 298 301 303 303 302 301 301 300 300 299 298 298 298 296 296 296 294 294 292 291 290 290 289 286 284 283 283 283 283 283 282 281 280 280
310 306 302 302 300 302 303 303 303 302 301 301 300 300 300 299 298 297 296 296 295 294 294 293 293 293 292 289 287 286 286 285 285 284 283 282 283 281
312 309 306 305 303 304 305 304 303 303 302 301 301 301 300 300 298 298 297 297 296 296 295 295 296 296 294 292 290 289 289 288 287 287 286 284 284 284
311 309 307 305 305 304 304 303 303 303 305 304 304 302 302 301 300 299 299 298 297 296 296 296 296 296 296 293 292 290 289 289 289 288 288 287 285 285
311 310 309 307 305 304 304 304 304 304 303 303 303 303 302 302 301 299 298 297 296 295 295 296 296 296 296 296 295 293 292 291 290 289 289 289 288 287
312 312 310 308 306 306 306 306 306 305 304 302 303 303 301 301 301 300 298 297 297 296 295 296 296 296 296 295 294 294 293 293 292 290 290 291 290 289
312 311 309 308 308 308 306 307 307 307 307 305 303 303 302 301 301 301 300 300 299 299 298 297 297 298 297 296 295 295 295 294 292 291 292 292 292 291
310 311 310 309 307 308 308 307 307 307 306 306 304 303 302 300 301 301 301 300 300 300 299 300 300 299 298 298 297 296 296 295 294 293 293 293 293 292
309 309 310 310 309 308 308 307 307 307 306 305 304 303 303 301 301 302 302 302 301 301 301 301 300 299 298 298 298 297 296 296 297 296 295 294 293 292
309 308 309 309 309 308 307 307 308 309 308 307 306 305 305 304 303 303 304 303 302 303 303 302 301 300 300 299 299 298 298 298 297 297 296 296 295 294
308 307 307 307 307 308 307 307 308 309 309 308 307 307 306 305 304 304 303 303 303 303 303 302 301 301 300 299 299 298 298 298 298 298 298 298 298 297
306 306 306 306 306 307 306 306 307 308 307 307 306 306 305 305 305 304 303 302 302 303 302 301 301 301 301 300 300 299 299 299 298 297 297 298 298 298
305 305 305 305 305 306 305 305 306 307 307 307 306 305 305 306 306 305 304 303 303 303 304 303 302 301 300 300 300 300 300 300 299 299 299 298 297 296
304 303 303 303 305 305 305 305 306 307 306 306 306 306 306 306 305 305 304 304 304 304 304 304 303 303 302 300 300 300 300 301 301 301 301 300 299 298
302 302 302 303 304 304 304 305 305 306 306 306 305 305 305 305 305 305 305 305 305 304 304 304 304 303 302 301 301 301 302 301 301 301 301 300 300 300
302 302 302 303 303 303 304 305 305 305 305 305 305 305 305 305 306 306 306 307 307 305 305 304 303 303 303 303 303 302 302 301 301 301 301 301 300 299
301 301 302 303 303 304 304 304 305 305 304 304 304 305 304 304 305 306 307 307 306 306 306 305 304 303 303 304 305 304 303 303 302 301 300 300 300 299
300 301 301 302 303 303 303 304 305 305 304 303 304 304 304 305 305 305 306 305 305 306 305 304 303 303 303 303 304 304 303 303 302 301 301 301 300 299
299 300 301 301 302 303 303 303 303 303 303 303 303 304 305 305 304 305 305 305 305 305 305 304 303 302 303 303 303 303 303 303 302 301 301 302 301 300
Height
5878 5877 5876 5875 5873 5872 5870 5869 5868 5866 5864 5862 5861 5859 5856 5854 5852 5850 5848 5846 5844 5842 5840 5838 5837 5835 5834 5833 5831 5829 5828 5827 5826 5824 5823 5822 5821 5820
5875 5874 5873 5871 5870 5868 5867 5865 5864 5862 5860 5858 5856 5854 5852 5849 5847 5845 5843 5841 5838 5836 5834 5832 5831 5829 5828 5826 5824 5822 5821 5819 5818 5816 5815 5814 5812 5811
5872 5871 5869 5868 5866 5864 5863 5861 5859 5857 5855 5853 5851 5849 5847 5844 5842 5839 5837 5835 5832 5830 5828 5826 5824 5822 5821 5819 5817 5815 5813 5812 5810 5808 5806 5805 5804 5802
5868 5867 5866 5864 5862 5860 5858 5856 5854 5852 5851 5848 5846 5844 5842 5839 5836 5834 5831 5829 5827 5824 5822 5820 5818 5816 5814 5812 5809 5807 5805 5804 5802 5800 5798 5796 5794 5793
5865 5863 5862 5860 5858 5856 5854 5852 5850 5848 5846 5844 5841 5839 5836 5834 5831 5829 5826 5823 5821 5818 5816 5813 5811 5809 5806 5804 5802 5799 5797 5795 5793 5791 5789 5787 5785 5783
5861 5859 5858 5856 5854 5852 5850 5848 5846 5843 5841 5839 5836 5834 5831 5828 5826 5823 5820 5818 5815 5812 5809 5807 5804 5801 5799 5796 5794 5791 5789 5787 5784 5782 5780 5777 5775 5773
5857 5856 5854 5852 5849 5847 5845 5843 5841 5838 5836 5833 5831 5828 5825 5822 5820 5817 5814 5811 5808 5805 5803 5800 5797 5794 5791 5788 5785 5783 5780 5778 5775 5773 5770 5768 5766 5763
5853 5851 5849 5847 5845 5843 5841 5838 5835 5833 5830 5827 5825 5822 5819 5816 5813 5810 5807 5804 5802 5799 5796 5793 5790 5787 5783 5780 5777 5774 5771 5769 5766 5763 5761 5758 5756 5754
5849 5847 5844 5842 5840 5838 5835 5833 5830 5827 5825 5822 5819 5815 5812 5810 5807 5803 5800 5797 5794 5791 5788 5785 5782 5778 5775 5772 5769 5765 5762 5760 5757 5754 5752 5749 5746 5744
5844 5842 5840 5837 5835 5832 5830 5827 5824 5821 5818 5815 5812 5809 5806 5802 5799 5796 5793 5790 5786 5783 5780 5777 5773 5770 5767 5763 5760 5757 5754 5751 5748 5745 5742 5740 5737 5734
5840 5837 5834 5832 5829 5826 5824 5821 5818 5815 5812 5808 5805 5801 5798 5795 5792 5789 5785 5782 5778 5775 5771 5768 5765 5761 5758 5755 5752 5748 5745 5742 5739 5736 5733 5730 5727 5724
5834 5832 5829 5826 5823 5820 5817 5814 5811 5808 5805 5801 5798 5794 5791 5787 5784 5781 5777 5774 5770 5767 5763 5760 5756 5753 5750 5747 5743 5740 5736 5733 5730 5727 5724 5721 5718 5715
5829 5826 5823 5820 5817 5814 5811 5808 5804 5801 5797 5794 5790 5786 5783 5780 5776 5773 5769 5766 5762 5759 5755 5752 5748 5745 5742 5738 5735 5731 5728 5725 5721 5718 5715 5712 5709 5706
5823 5820 5817 5814 5810 5807 5804 5800 5797 5793 5790 5786 5783 5779 5775 5772 5768 5765 5761 5758 5754 5751 5747 5744 5740 5737 5734 5730 5727 5723 5719 5716 5713 5709 5706 5703 5700 5697
5816 5813 5810 5807 5803 5800 5797 5793 5790 5786 5782 5779 5775 5772 5768 5765 5761 5757 5754 5750 5746 5743 5739 5735 5732 5728 5725 5722 5718 5715 5711 5708 5704 5701 5698 5694 5691 5688
5809 5806 5803 5800 5796 5793 5789 5786 5782 5779 5775 5771 5768 5764 5761 5757 5753 5750 5746 5742 5739 5735 5731 5727 5724 5720 5717 5713 5710 5706 5703 5700 5696 5693 5690 5686 5683 5680
5802 5799 5796 5793 5789 5786 5782 5778 5775 5772 5768 5764 5760 5757 5753 5749 5745 5741 5738 5734 5731 5727 5723 5719 5715 5712 5708 5705 5702 5698 5695 5691 5688 5685 5682 5679 5675 5672
5795 5792 5789 5785 5782 5778 5775 5771 5767 5764 5760 5756 5753 5749 5745 5741 5737 5733 5730 5726 5722 5718 5715 5711 5708 5704 5700 5696 5694 5690 5686 5683 5680 5677 5673 5670 5667 5664
5787 5784 5781 5777 5774 5770 5767 5763 5760 5756 5752 5748 5745 5741 5737 5733 5730 5726 5722 5718 5714 5711 5707 5703 5700 5696 5693 5689 5685 5682 5678 5675 5672 5669 5666 5663 5660 5657
5779 5776 5773 5769 5766 5762 5758 5755 5751 5748 5744 5740 5737 5733 5729 5725 5722 5718 5714 5711 5707 5703 5699 5696 5692 5688 5685 5682 5679 5675 5671 5667 5664 5661 5658 5655 5652 5649
5771 5768 5764 5761 5758 5754 5751 5747 5743 5740 5736 5732 5729 5725 5721 5718 5714 5711 5707 5703 5699 5695 5692 5688 5684 5681 5677 5674 5671 5667 5663 5659 5656 5653 5650 5647 5644 5641
5763 5760 5756 5753 5749 5746 5742 5738 5735 5731 5728 5724 5720 5717 5713 5710 5706 5703 5699 5695 5692 5688 5684 5680 5677 5673 5670 5666 5663 5659 5656 5652 5648 5645 5641 5639 5636 5633
5754 5751 5748 5744 5741 5737 5734 5730 5727 5723 5720 5716 5713 5709 5705 5702 5698 5695 5691 5687 5684 5680 5676 5673 5669 5665 5662 5658 5655 5651 5648 5644 5641 5637 5634 5630 5628 5625